Location: Hurstbourne Priors
(51.2000°N, 1.3667°W)
Time: 23:09:08
(UTC+00:00)

Resurs 1-3 - Pass Details

Date: 09 April 2020
Orbit: 630 x 632 km, 97.9° (Epoch: 29 May)

Event Time Altitude Azimuth Distance (km) Brightness Sun altitude
Exits shadow 20:18:56 - 171° (S) 2,153 6.0 -13.3°
Reaches altitude 10° 20:19:17 10° 171° (S) 2,010 5.8 -13.3°
Maximum altitude 20:23:39 74° 256° (WSW) 662 3.8 -13.9°
Drops below altitude 10° 20:28:05 10° 343° (NNW) 2,027 7.0 -14.5°
Sets 20:30:18 0° 345° (NNW) 2,940 7.8 -14.8°
